Location: *
(51.2167°N, 10.0667°E)
Time: 03:44:49
(UTC+00:00)

Cosmos 407 Rocket - Visible Passes

Search period start: 02 April 2020 00:00
Search period end: 12 April 2020 00:00
Orbit: 745 x 785 km, 74.0° (Epoch: 01 April)

Date Brightness Start Highest point End Pass type
(mag) Time Alt. Az. Time Alt. Az. Time Alt. Az.
02 Apr 6.4 03:45:17 10° N 03:47:52 14° NE 03:50:26 10° ENE visible
02 Apr 3.5 20:10:44 31° S 20:12:59 57° ESE 20:18:00 10° NNE visible
02 Apr 5.3 21:50:54 10° WSW 21:55:19 28° NW 21:59:44 10° N visible
03 Apr 4.0 19:30:33 10° SSE 19:35:11 35° ESE 19:39:50 10° NE visible
03 Apr 4.6 21:12:16 10° SW 21:17:08 41° WNW 21:22:00 10° NNE visible
03 Apr 6.5 22:59:15 10° NW 23:00:38 11° NNW 23:02:03 10° NNW visible
04 Apr 6.0 04:10:31 10° N 04:14:45 25° NE 04:19:00 10° ESE visible
04 Apr 4.6 18:53:38 10° SSE 18:57:31 22° E 19:01:24 10° NE visible
04 Apr 3.8 20:33:57 10° SW 20:39:04 63° WNW 20:44:11 10° NNE visible
04 Apr 6.3 22:19:12 10° WNW 22:22:09 15° NW 22:25:06 10° N visible
05 Apr 6.3 03:32:57 10° N 03:36:26 18° NE 03:39:54 10° E visible
05 Apr 3.3 19:55:57 10° SSW 20:01:05 83° ESE 20:06:16 10° NNE visible
05 Apr 5.9 21:39:53 10° W 21:43:46 21° NW 21:47:39 10° N visible
06 Apr 6.5 02:55:40 10° N 02:58:00 13° NE 03:00:20 10° ENE visible
06 Apr 3.6 19:18:15 10° S 19:23:14 52° ESE 19:28:13 10° NNE visible
06 Apr 5.3 21:01:00 10° WSW 21:05:30 30° NW 21:10:01 10° N visible
07 Apr 5.5 03:58:29 10° NNW 04:03:10 34° NE 04:07:52 10° ESE visible
07 Apr 4.1 18:40:57 10° SSE 18:45:28 32° ESE 18:50:00 10° NE visible
07 Apr 4.6 20:22:26 10° SW 20:27:20 44° WNW 20:32:16 10° NNE visible
07 Apr 6.6 22:08:59 10° NW 22:10:46 12° NW 22:12:33 10° NNW visible
08 Apr 6.1 03:20:49 10° N 03:24:57 23° NE 03:29:04 10° E visible
08 Apr 3.8 19:44:10 10° SSW 19:49:17 69° WNW 19:54:26 10° NNE visible
08 Apr 6.4 21:29:10 10° WNW 21:32:18 16° NW 21:35:27 10° N visible
09 Apr 6.5 02:43:17 10° N 02:46:36 17° NE 02:49:54 10° E visible
09 Apr 3.4 19:06:13 10° SSW 19:11:20 76° ESE 19:16:29 10° NNE visible
09 Apr 5.9 20:49:56 10° W 20:53:56 22° NW 20:57:57 10° N visible
10 Apr 6.7 02:06:04 10° N 02:08:08 12° NE 02:10:13 10° ENE visible
10 Apr 4.7 03:46:31 10° NNW 03:51:30 47° ENE 03:56:30 10° SE visible
10 Apr 5.4 20:11:06 10° WSW 20:15:41 32° NW 20:20:18 10° N visible
11 Apr 5.5 03:08:45 10° N 03:13:22 32° NE 03:17:59 10° ESE visible
11 Apr 4.6 19:32:35 10° SW 19:37:33 48° WNW 19:42:31 10° NNE visible
11 Apr 6.8 21:18:48 10° WNW 21:20:54 12° NW 21:23:01 10° N visible
